Hourly Data Report for September 30, 2017

All times are specified in Local Standard Time (LST). Add 1 hour to adjust for Daylight Saving Time where and when it is observed.

SUSSEX FOUR CORNERS
NEW BRUNSWICK

45°44'30.048" N
65°31'44.039" W
47.00 m
8105210
71656
ASF

Download Data

Hourly Data (September 2017)
Hourly Data Report for September 30, 2017
Temp Definition
°C
Dew Point Temp Definition
°C
Rel Hum Definition
%
Wind Dir Definition
10's deg

Wind Spd Definition
km/h
Visibility Definition
km
Stn Press Definition
kPa
Hmdx Definition


Wind Chill Definition


Weather Definition


TIME
00:00 6.0 3.6 84 6 3   101.21     LegendNANA
01:00 5.1 3.1 87 6 1   101.26     LegendNANA
02:00 3.1 1.5 89 29 5   101.30     LegendNANA
03:00 2.3 1.5 94 14 4   101.33     LegendNANA
04:00 2.1 1.6 97 4 2   101.37     LegendNANA
05:00 1.3 0.9 97 4 2   101.45     LegendNANA
06:00 0.1 -0.2 98 0 1   101.53     LegendNANA
07:00 0.3 0.0 98   0   101.62     LegendNANA
08:00 2.1 1.9 98 19 4   101.70     LegendNANA
09:00 4.2 3.5 95   0   101.75     LegendNANA
10:00 7.2 3.2 76 10 4   101.77     LegendNANA
11:00 10.6 3.4 61 27 3   101.76     LegendNANA
12:00 10.5 2.2 57 34 7   101.75     LegendNANA
13:00 10.5 2.6 58 36 5   101.74     LegendNANA
14:00 11.8 2.4 52 35 8   101.72     LegendNANA
15:00 11.3 2.2 54 36 8   101.69     LegendNANA
16:00 11.8 1.4 49 23 3   101.67     LegendNANA
17:00 11.3 2.8 56 18 7   101.66     LegendNANA
18:00 8.8 2.1 63 20 8   101.68     LegendNANA
19:00 5.8 2.4 79 27 8   101.74     LegendNANA
20:00 4.4 1.6 82 0 1   101.78     LegendNANA
21:00 3.7 2.3 90 4 3   101.80     LegendNANA
22:00 2.2 1.3 94   0   101.79     LegendNANA
23:00 1.7 1.0 95 23 2   101.79     LegendNANA

Notes on Data Quality.

Legend

  • E = Estimated
  • M = Missing
  • NA = Not Available
  • ‡ = Partner data that is not subject to review by the National Climate Archives
Date modified: